Weather History for Manhattan, KS

Change the Weather History Date:

Thursday, February 13, 2014

  Actual Average Record
Temperature  
Mean Temperature 34 °F 32 °F  
Max Temperature 46 °F 45 °F 66 °F (2006)
Min Temperature 21 °F 20 °F -5 °F (2004)
Degree Days  
Heating Degree Days 31 33  
Month to date heating degree days 635 440  
Since 1 July heating degree days 4086 3706  
Cooling Degree Days 0 0  
Month to date cooling degree days 0 0  
Year to date cooling degree days 0 0  
Moisture  
Dew Point 27 °F    
Average Humidity 73    
Maximum Humidity 92    
Minimum Humidity 53    
Precipitation  
Precipitation 0.00 in 0.03 in 0.34 in (2003)
Month to date precipitation 0.14 0.46  
Year to date precipitation 0.45 1.11  
Sea Level Pressure  
Sea Level Pressure 29.85 in    
Wind  
Wind Speed 7 mph (SW)    
Max Wind Speed 15 mph    
Max Gust Speed 18 mph    
Visibility 10 miles    
Events      
T = Trace of Precipitation, MM = Missing Value Source: NWS Daily Summary

Daily Weather History Graph

Daily Weather History Graph

Search for Another Location

Airport:

Trip Planner

Search our weather history database for the weather conditions in past years. The results will help you decide how hot, cold, wet, or windy it might be!

Date:

Astronomy

Feb. 13, 2014 Rise Set
Actual Time 7:20 AM CST 6:01 PM CST
Civil Twilight 6:53 AM CST 6:29 PM CST
Nautical Twilight 6:21 AM CST 7:00 PM CST
Astronomical Twilight 5:50 AM CST 7:31 PM CST
Moon 5:11 PM CST (2/13) 6:14 AM CST (2/13)
Length of Visible Light 11h 36m
Length of Day
10h 41m
Waxing Gibbous, 99% of the Moon is Illuminated
Feb 13
Waxing Gibbous
Feb 14
Full
Feb 22
Last Quarter
Mar 1
New
Mar 8
First Quarter

Hourly Weather History & Observations

Time (CST) Temp. Windchill Dew Point Humidity Pressure Visibility Wind Dir Wind Speed Gust Speed Precip Events Conditions
12:52 AM 27.0 °F 19.5 °F 23.0 °F 85% 29.96 in 9.0 mi SW 6.9 mph - N/A   Clear
1:52 AM 26.1 °F 17.6 °F 24.1 °F 92% 29.93 in 9.0 mi SSW 8.1 mph - N/A   Partly Cloudy
2:52 AM 28.9 °F 19.8 °F 25.0 °F 85% 29.89 in 10.0 mi SW 10.4 mph - N/A   Mostly Cloudy
3:52 AM 28.9 °F 21.1 °F 26.1 °F 89% 29.88 in 9.0 mi SSW 8.1 mph - N/A   Clear
4:52 AM 28.0 °F 24.2 °F 24.1 °F 85% 29.88 in 9.0 mi WSW 3.5 mph - N/A   Partly Cloudy
5:52 AM 25.0 °F 20.7 °F 21.9 °F 88% 29.87 in 9.0 mi South 3.5 mph - N/A   Clear
6:52 AM 21.0 °F 13.4 °F 19.0 °F 92% 29.88 in 8.0 mi SSW 5.8 mph - N/A   Clear
7:52 AM 26.1 °F 16.2 °F 23.0 °F 88% 29.88 in 8.0 mi SW 10.4 mph - N/A   Clear
8:52 AM 28.9 °F 20.4 °F 24.1 °F 82% 29.89 in 10.0 mi SW 9.2 mph - N/A   Clear
9:52 AM 35.1 °F 27.4 °F 25.0 °F 67% 29.90 in 10.0 mi WSW 10.4 mph - N/A   Clear
10:52 AM 37.9 °F 32.7 °F 26.1 °F 62% 29.90 in 10.0 mi WSW 6.9 mph - N/A   Clear
11:52 AM 41.0 °F 35.8 °F 27.0 °F 57% 29.88 in 10.0 mi WSW 8.1 mph - N/A   Clear
12:52 PM 43.0 °F 38.8 °F 28.0 °F 56% 29.85 in 10.0 mi SW 6.9 mph - N/A   Clear
1:52 PM 44.1 °F 39.5 °F 28.9 °F 55% 29.83 in 10.0 mi SSW 8.1 mph - N/A   Clear
2:52 PM 43.0 °F 38.2 °F 30.0 °F 60% 29.81 in 10.0 mi SW 8.1 mph - N/A   Clear
3:52 PM 43.0 °F 38.2 °F 30.0 °F 60% 29.81 in 10.0 mi SSW 8.1 mph - N/A   Clear
4:52 PM 43.0 °F 39.5 °F 30.9 °F 62% 29.81 in 10.0 mi SSW 5.8 mph - N/A   Clear
5:52 PM 39.0 °F 34.0 °F 30.0 °F 70% 29.81 in 10.0 mi SSW 6.9 mph - N/A   Clear
6:52 PM 37.0 °F 34.5 °F 30.0 °F 76% 29.81 in 10.0 mi SW 3.5 mph - N/A   Clear
7:52 PM 35.1 °F - 30.0 °F 82% 29.81 in 10.0 mi Calm Calm - N/A   Clear
8:52 PM 34.0 °F 29.8 °F 30.0 °F 85% 29.80 in 10.0 mi SSW 4.6 mph - N/A   Partly Cloudy
9:52 PM 35.1 °F 31.0 °F 30.0 °F 82% 29.77 in 10.0 mi SSW 4.6 mph - N/A   Clear
10:52 PM 35.1 °F 31.0 °F 28.9 °F 78% 29.74 in 10.0 mi SSW 4.6 mph - N/A   Partly Cloudy
11:52 PM 36.0 °F 32.1 °F 30.0 °F 79% 29.71 in 10.0 mi WSW 4.6 mph - N/A   Partly Cloudy